CW4498 Weather Reports


time (UTC)temp
F
wind
direction
speed
knots
gust
knots
rain 1hr
in
rain 24hr
in
rain mn
in
humidity
%
barometer
mb
20260831014501 63 32 0.9 2.6 0.00 0.00 0.00 62 1020.5
20260831013001 63 28 0.9 6.1 0.00 0.00 0.00 62 1019.9
20260831011614 64 313 2.6 5.2 0.00 0.00 0.00 62 1019.6
20260831010100 65 12 1.7 4.3 0.00 0.00 0.00 59 1019.5
20260831004600 64 296 1.7 7.8 0.00 0.00 0.00 61 1019.7
20260831003059 64 345 1.7 8.7 0.00 0.00 0.00 63 1019.9
20260831001606 65 27 0.9 6.1 0.00 0.00 0.00 63 1019.9
20260830234558 65 58 0.0 4.3 0.00 0.00 0.00 63 1019.9
20260830233105 66 96 0.9 4.3 0.00 0.00 0.00 61 1020.3
20260830231607 66 30 0.9 4.3 0.00 0.00 0.00 62 1020.2
20260830230057 67 46 1.7 4.3 0.00 0.00 0.00 58 1020.1
20260830224616 69 355 1.7 5.2 0.00 0.02 0.00 52 1019.8
20260830223057 73 345 0.0 0.9 0.00 0.02 0.00 37 1019.3
20260830221603 73 154 0.9 5.2 0.00 0.02 0.00 37 1019.0
20260830220101 72 253 1.7 6.1 0.00 0.02 0.00 37 1018.7
20260830214559 73 107 1.7 3.5 0.00 0.02 0.00 46 1018.8
20260830213052 73 117 0.0 0.9 0.00 0.02 0.00 45 1018.8
20260830211554 74 112 0.0 0.9 0.00 0.02 0.00 44 1018.5
20260830210100 74 111 0.0 1.7 0.00 0.02 0.00 43 1018.4
20260830204554 75 103 0.0 2.6 0.00 0.02 0.00 44 1018.1
20260830203051 74 66 1.7 5.2 0.00 0.02 0.00 44 1018.3
20260830201550 75 117 2.6 7.8 0.00 0.02 0.00 44 1018.3
20260830200050 75 87 1.7 6.1 0.00 0.02 0.00 42 1018.5
20260830194550 75 134 2.6 7.0 0.00 0.02 0.00 39 1018.4
20260830193050 76 115 2.6 6.1 0.00 0.02 0.00 41 1018.7
20260830191549 76 61 2.6 6.1 0.00 0.02 0.00 39 1018.7
20260830190047 75 107 1.7 6.1 0.00 0.02 0.00 39 1018.8
20260830184543 74 113 0.9 4.3 0.00 0.02 0.00 43 1019.1
20260830183041 73 128 1.7 7.8 0.00 0.02 0.00 42 1019.2
20260830181539 73 108 2.6 4.3 0.00 0.02 0.00 43 1019.3
20260830180042 72 120 0.0 4.3 0.00 0.02 0.00 46 1019.3
20260830174541 72 128 0.9 2.6 0.00 0.02 0.00 45 1019.4
20260830173040 72 113 0.0 2.6 0.00 0.02 0.00 44 1019.6
20260830171534 71 98 0.0 0.9 0.00 0.02 0.00 47 1019.6
20260830170030 69 103 0.0 0.0 0.00 0.02 0.00 51 1019.8
20260830164551 68 113 0.0 0.9 0.00 0.02 0.00 54 1019.6
20260830163027 66 314 0.0 0.0 0.00 0.02 0.00 59 1019.7
20260830161517 65 313 0.0 0.9 0.00 0.02 0.00 58 1019.6
20260830160016 63 273 0.0 3.5 0.00 0.02 0.00 61 1019.5
20260830154516 62 295 0.0 0.9 0.00 0.02 0.00 63 1019.7
20260830153014 62 294 0.0 0.0 0.00 0.02 0.00 62 1019.3
20260830151515 62 294 0.0 0.0 0.00 0.02 0.00 64 1019.1
20260830150015 62 294 0.0 0.0 0.00 0.02 0.00 62 1019.0
20260830144516 62 294 0.0 0.0 0.00 0.02 0.00 63 1019.1
20260830143013 62 294 0.0 1.7 0.00 0.02 0.00 64 1019.0
20260830141526 61 273 0.0 0.0 0.00 0.02 0.00 64 1018.9
20260830140012 61 273 0.0 0.0 0.00 0.02 0.00 63 1019.4
20260830134520 60 273 0.0 0.0 0.00 0.02 0.00 64 1019.0
20260830133011 59 273 0.0 0.0 0.00 0.02 0.00 65 1018.9
20260830131510 60 273 0.0 0.0 0.00 0.02 0.00 64 1019.0
20260830130015 59 279 0.0 0.0 0.00 0.02 0.00 64 1018.9
20260830124509 59 280 0.0 1.7 0.00 0.02 0.00 64 1018.8
20260830123007 59 117 0.0 1.7 0.00 0.02 0.00 63 1018.4
20260830121506 60 117 0.0 0.9 0.00 0.02 0.00 62 1018.1
20260830120006 60 264 0.0 0.0 0.00 0.02 0.00 62 1018.0
20260830114506 60 264 0.0 2.6 0.00 0.02 0.00 62 1017.8
20260830113005 60 122 0.0 0.9 0.00 0.02 0.00 62 1017.6
20260830111504 60 122 0.0 0.0 0.00 0.02 0.00 63 1017.5
20260830110004 60 122 0.0 0.0 0.00 0.02 0.00 62 1017.7
20260830104501 60 123 0.0 0.0 0.00 0.02 0.00 61 1017.7
20260830103058 61 122 0.0 0.0 0.00 0.02 0.00 60 1017.5
20260830101600 63 123 0.0 2.6 0.00 0.02 0.00 57 1017.6
20260830100058 63 131 0.0 3.5 0.00 0.02 0.00 56 1017.9
20260830094558 63 159 0.9 5.2 0.00 0.02 0.00 57 1017.9
20260830093107 62 267 0.0 1.7 0.00 0.02 0.00 59 1017.9
20260830091558 62 118 0.9 3.5 0.00 0.02 0.00 60 1017.9
20260830090058 61 163 0.9 5.2 0.00 0.02 0.00 62 1017.9
20260830084603 61 121 0.9 3.5 0.00 0.02 0.00 61 1017.8
20260830083055 61 107 0.0 0.9 0.00 0.02 0.00 61 1017.6
20260830081600 61 106 0.0 0.0 0.00 0.02 0.00 60 1017.4
20260830080052 62 106 0.0 0.0 0.00 0.02 0.00 59 1017.6
20260830074604 62 106 0.0 0.0 0.00 0.02 0.00 59 1017.5
20260830073052 62 106 0.0 0.9 0.00 0.02 0.00 59 1017.6
20260830071555 63 106 0.0 0.9 0.00 0.02 0.00 57 1017.8
20260830070046 64 351 0.0 2.6 0.00 0.02 0.00 56 1018.0
20260830064545 63 292 1.7 6.1 0.00 0.02 0.00 57 1018.1
20260830063045 63 317 0.9 4.3 0.00 0.02 0.00 58 1018.2
20260830061543 63 15 1.7 4.3 0.00 0.02 0.00 58 1018.2
20260830060050 63 36 0.0 2.6 0.00 0.02 0.00 57 1018.2
20260830054550 64 349 0.9 4.3 0.00 0.02 0.02 57 1018.1
20260830053046 65 336 1.7 5.2 0.00 0.02 0.02 55 1018.2
20260830051541 66 28 0.9 4.3 0.00 0.02 0.02 53 1018.7
20260830050038 67 275 1.7 4.3 0.00 0.02 0.02 50 1018.9
20260830044537 68 44 0.9 3.5 0.00 0.02 0.02 45 1019.0
20260830043036 69 264 0.0 0.9 0.00 0.02 0.02 39 1018.6
20260830041542 71 144 0.0 2.6 0.00 0.02 0.02 36 1018.4
20260830040041 72 269 0.0 2.6 0.00 0.02 0.02 33 1018.5
20260830034535 72 275 0.0 1.7 0.00 0.02 0.02 35 1018.6
20260830033034 72 321 1.7 5.2 0.00 0.02 0.02 36 1018.5
20260830031533 71 298 0.9 5.2 0.00 0.02 0.02 37 1018.5
20260830030054 70 268 0.0 2.6 0.00 0.02 0.02 40 1018.4
20260830024535 70 126 0.0 0.9 0.00 0.02 0.02 39 1018.3
20260830023033 71 125 0.0 1.7 0.00 0.02 0.02 38 1017.8
20260830021535 72 334 0.0 4.3 0.00 0.02 0.02 37 1017.5
20260830020036 73 277 3.5 12.2 0.00 0.02 0.02 36 1017.2